Location: Bauersach School (historical)
(38.0926°N, 89.4806°W)
Time: 03:55:33
(UTC+00:00)

Cosmos 1503 Rocket - Pass Details

Date: 11 December 2025
Orbit: 749 x 786 km, 74.0° (Epoch: 20 January)

Event Time Altitude Azimuth Distance (km) Brightness Sun altitude
Rises 22:58:08 0° 199° (SSW) 3,232 8.0 -4.3°
Reaches altitude 10° 23:00:31 10° 200° (SSW) 2,304 7.2 -4.7°
Maximum altitude 23:05:45 83° 287° (WNW) 775 4.1 -5.6°
Drops below altitude 10° 23:10:58 10° 17° (NNE) 2,294 6.1 -6.6°
Sets 23:13:20 0° 18° (NNE) 3,218 6.8 -7.0°
